Location: Montebello
(37.3256°N, 122.1789°W)
Time: 11:01:27
(UTC-08:00)

N. Korean satellite - Visible Passes

Search period start: 21 November 2017 00:00
Search period end: 01 December 2017 00:00
Orbit: 460 x 514 km, 97.2° (Epoch: 21 November)

Date Brightness Start Highest point End Pass type
(mag) Time Alt. Az. Time Alt. Az. Time Alt. Az.
21 Nov 7.1 17:45:13 10° SE 17:48:26 35° ENE 17:51:43 10° N visible
21 Nov 10.1 19:21:12 10° WSW 19:22:06 11° W 19:23:01 10° WNW visible
22 Nov 8.0 17:22:39 10° ESE 17:25:06 18° ENE 17:27:36 10° NNE visible
22 Nov 9.1 18:55:41 10° SSW 18:58:27 22° W 19:01:17 10° NW visible
23 Nov 8.8 06:24:09 10° NNE 06:27:33 32° E 06:30:57 10° SSE visible
23 Nov 7.6 18:31:31 10° S 18:34:52 46° W 18:38:20 10° NNW visible
24 Nov 9.9 06:01:30 10° NE 06:03:58 16° E 06:06:24 10° SE visible
24 Nov 6.4 18:07:52 10° SSE 18:11:22 79° ENE 18:14:57 10° N visible
25 Nov 7.1 17:44:42 10° SE 17:47:57 35° ENE 17:51:15 10° N visible
25 Nov 10.1 19:20:34 10° WSW 19:21:38 11° W 19:22:41 10° WNW visible
26 Nov 8.0 17:22:07 10° ESE 17:24:36 18° ENE 17:27:07 10° NNE visible
26 Nov 9.1 18:55:07 10° SSW 18:57:57 22° W 19:00:49 10° NW visible
27 Nov 8.8 06:23:40 10° NNE 06:27:04 32° E 06:30:27 10° SSE visible
27 Nov 7.6 18:30:56 10° S 18:34:21 46° W 18:37:50 10° NNW visible
28 Nov 9.9 06:01:00 10° NE 06:03:27 16° E 06:05:52 10° SE visible
28 Nov 6.4 18:07:18 10° SSE 18:10:50 78° ENE 18:14:27 10° N visible
29 Nov 7.1 17:44:06 10° SE 17:47:23 35° ENE 17:50:44 10° N visible
29 Nov 10.1 19:19:51 10° WSW 19:21:03 11° W 19:22:15 10° WNW visible
30 Nov 8.0 17:21:30 10° ESE 17:24:01 18° ENE 17:26:34 10° NNE visible
30 Nov 9.1 18:54:29 10° SSW 18:57:21 23° W 19:00:17 10° NW visible
